THOR ABLESTAR DEB, 655

Orbit data source: Space-Track

THOR ABLESTAR DEB, 655 is space debris in LEO originally from a launch on Thu, 29 Jun 1961 UTC launched from the Air Force Eastern Test Range (AFETR). Debris objects in space refer to the collection of defunct objects orbiting the Earth. Examples of debris include non-operational satellites, rocket bodies, and fragments generated from explosions, collisions, or faulty payload assembly.

Loading next visibility...
Identifier
655, 1961-015HG
Orbit
LEO
Last TLE update
16 hours ago
Origin
Manufacturer
Unknown
Mission
Spacecraft
Bus & Motor
Unknown
Mass
Unknown
Launch date (UTC)
1961-06-29 (64 years ago)
Launch vehicle
Unknown
Launch site
Air Force Eastern Test Range (AFETR)
Object type
Payload
Rocket body
Debris
Shape & HBR
Unknown
Radar Cross Section
Small (<0.1 m²)

Expand to show TLE details & history

TLE from 16 hours ago
0 THOR ABLESTAR DEB
1 00655U 61015HG  25183.54837410 -.00000397  00000-0 -70452-3 0  9992
2 00655  67.2563 250.6639 0368477 201.3738 274.0418 13.09242205 41152
Epoch: 2025-07-02T13:09Z
TLE epoch observation values (Epoch: 2025-07-02T13:09:39.522Z)
Latitude
59.41258°
Longitude
-92.45779°
Altitude
1,225.927 km
Speed
7.252 km/s
True Right ascension
01h 43m 08s
True Declination
59° 16' 16"
Sunlit
Object was in daylight at epoch
Visualization orbit readout
Latitude
54.37728°
Longitude
166.6144°
Altitude
1,441.983 km
Speed
7.048 km/s
Apparent Right ascension
00h 37m 35s
Apparent Declination
44° 55' 38"
Sunlit
Object is in daylight
Visualization observer readout
Local Sidereal Time
17:09:37
Azimuth
42.688° NE
Elevation
14.467°
Doppler factor
1
Orbital elements
Apogee altitude
1,504.636 km
Perigee altitude
944.357 km
Semi-major axis
7,602.633 km
Eccentricity
0.03685
Inclination
67.2563°
RAAN
250.6639°
Arg. of periapsis
201.3738°
True anomaly
Unknown
Mean anomaly
274.0418°
Eccentric anomaly
Unknown
Mean motion
3.27414 °/min
Orbital period
109.95 mins
BSTAR
-0.00070452
Loading maneuver chart data...
Loading SW <> Apogee altitude chart data...

THOR ABLESTAR DEB Visibility forecast

Observer location: undefined°, undefined°

Span
Click to sort rows by Start time (UTC) header in descending order
Start Az.
Max El. time (UTC)
Max El. Az.
Max El.
End time (UTC)
End Az.
15 mins2025-07-03 07:03:07.522Z238.064° WSW2025-07-03 07:10:07.522Z302.957° NW36.552°2025-07-03 07:18:07.522Z18.488° NNE
7 mins2025-07-03 09:03:07.522Z309.683° NW2025-07-03 09:06:07.522Z331.927° NNW14.277°2025-07-03 09:10:07.522Z1.174° NNE
7 mins2025-07-03 12:58:07.522Z4.859° NNE2025-07-03 13:01:07.522Z30.329° NE15.143°2025-07-03 13:05:07.522Z65.468° ENE
12 mins2025-07-03 14:50:07.522Z339.145° N2025-07-03 14:56:07.522Z49.741° ENE41.149°2025-07-03 15:02:07.522Z135.772° SSE
8 mins2025-07-03 16:45:07.522Z295.612° NW2025-07-03 16:49:07.522Z252.076° W21.351°2025-07-03 16:53:07.522Z211.349° SW
15 mins2025-07-04 05:00:07.522Z174.53° S2025-07-04 05:07:07.522Z109.03° ESE36.318°2025-07-04 05:15:07.522Z39.881° NE
|